Regional Weather Roundup
Issued by NWS

Home | Current Version | Previous Version | Graphics & Text | Print | Product List | Glossary On
Versions: 1 2 3 4 5 6 7 8 9 10 11 12 13 14 15 16 17 18 19 20 21 22 23 24 25 26 27 28 29 30 31 32 33 34 35 36 37 38 39 40 41 42 43 44 45 46 47 48 49 50
000
ASUS43 KLSX 011807
RWRMO

WEATHER SUMMARY FOR MISSOURI
NATIONAL WEATHER SERVICE SPRINGFIELD MO
100 PM CDT TUE SEP 01 2015

NOTE: "FAIR" INDICATES FEW OR NO CLOUDS BELOW 12,000 FEET WITH NO
       SIGNIFICANT WEATHER AND/OR OBSTRUCTIONS TO VISIBILITY.
       CURRENT SKY AND/OR WEATHER CONDITIONS ARE NOT AVAILABLE FOR
       CHILLICOTHE AND FARMINGTON.

MOZ001>031-035>038-043-044-053-054-011900-
...NORTHERN AND WESTERN MISSOURI...

CITY           SKY/WX    TMP DP  RH WIND       PRES   REMARKS
KANSAS CTY INT MOSUNNY   88  68  51 SW10G21   30.02F HX  91
6HR MIN TEMP:  73; 6HR MAX TEMP:  89;

KANSAS C DTWN  SUNNY     89  68  49 S14G20    30.01F HX  93
6HR MIN TEMP:  75; 6HR MAX TEMP:  89;

LEE`S SUMMIT   SUNNY     87  68  52 S12       30.04F HX  90
6HR MIN TEMP:  72; 6HR MAX TEMP:  87;

ST JOSEPH      MOSUNNY   88  71  57 S15       29.99F HX  94
6HR MIN TEMP:  71; 6HR MAX TEMP:  88;

CHILLICOTHE      N/A     89  70  53 S9        30.02F HX  94
6HR MIN TEMP:  70; 6HR MAX TEMP:  89;

KIRKSVILLE     SUNNY     88  68  51 SW10      30.05F HX  91
6HR MIN TEMP:  70; 6HR MAX TEMP:  88;


$$
MOZ066>068-077>081-088>096-101>105-011900-
...SOUTHWEST MISSOURI...

CITY           SKY/WX    TMP DP  RH WIND       PRES   REMARKS
SPRINGFIELD    SUNNY     86  66  51 S10       30.09F
6HR MIN TEMP:  69; 6HR MAX TEMP:  86;

JOPLIN         SUNNY     87  66  49 S15       30.08S
6HR MIN TEMP:  70; 6HR MAX TEMP:  87;


$$
MOZ032>034-039>042-045>050-055>058-069>072-011900-
...CENTRAL MISSOURI...

CITY           SKY/WX    TMP DP  RH WIND       PRES   REMARKS
COLUMBIA       SUNNY     87  71  58 S8        30.07F HX  93
6HR MIN TEMP:  70; 6HR MAX TEMP:  88;

JEFFERSON CITY SUNNY     88  67  49 VRB3      30.05F HX  91
6HR MIN TEMP:  69; 6HR MAX TEMP:  89;

ROLLA          MOSUNNY   89  67  47 SW6G17    30.09S HX  92
6HR MIN TEMP:  70; 6HR MAX TEMP:  89;

SEDALIA        SUNNY     90  68  48 SW9       30.07F HX  94
6HR MIN TEMP:  71; 6HR MAX TEMP:  90;

WHITEMAN AFB   MOSUNNY   89  68  49 SW10      30.04F HX  93
WARRENSBURG    SUNNY     88  66  48 SW7       30.04F HX  90
OSAGE BEACH    SUNNY     90  66  45 S3        30.08F HX  92

$$
MOZ051-052-059>065-011900-
...EAST CENTRAL MISSOURI...

CITY           SKY/WX    TMP DP  RH WIND       PRES   REMARKS
ST LOUIS INTL  MOSUNNY   90  68  48 SE6       30.08F HX  94
6HR MIN TEMP:  75; 6HR MAX TEMP:  91;

SPIRIT OF STL  MOSUNNY   89  70  53 CALM      30.06F HX  94
6HR MIN TEMP:  69; 6HR MAX TEMP:  89;

ST CHARLES     SUNNY     89  70  53 SW6       30.06F HX  94
6HR MIN TEMP:  69; 6HR MAX TEMP:  89;


$$
MOZ072>076-082>087-097>100-106>115-011900-
...SOUTH CENTRAL AND SOUTHEAST MISSOURI...

CITY           SKY/WX    TMP DP  RH WIND       PRES   REMARKS
CAPE GIRARDEAU SUNNY     86  69  56 SW3       30.10F HX  90
6HR MIN TEMP:  66; 6HR MAX TEMP:  87;

FARMINGTON     SUNNY     88  73  62 S8        30.14S HX  96
6HR MIN TEMP:  68; 6HR MAX TEMP:  88;

POPLAR BLUFF   MOSUNNY   87  71  58 VRB6      30.10F HX  93
6HR MIN TEMP:  67; 6HR MAX TEMP:  87;

WEST PLAINS    MOSUNNY   86  67  52 S10       30.14F
6HR MIN TEMP:  67; 6HR MAX TEMP:  86;


$$



USA.gov is the U.S. government's official web portal to all federal, state and local government web resources and services.